| time (UTC) | temp F | wind direction | speed MPH | gust MPH | rain 1hr in | rain 24hr in | rain mn in | humidity % | barometer mb |
| 20260906050004 | 60 | 255 | 1.0 | 2.0 | 0.00 | 0.00 | 0.00 | 80 | 1014.0 |
| 20260906045403 | 60 | 268 | 1.0 | 3.0 | 0.00 | 0.00 | 0.00 | 78 | 1013.9 |
| 20260906044803 | 60 | 270 | 0.0 | 3.0 | 0.00 | 0.00 | 0.00 | 76 | 1013.8 |
| 20260906044203 | 60 | 270 | 0.0 | 2.0 | 0.00 | 0.00 | 0.00 | 76 | 1013.9 |
| 20260906043603 | 60 | 270 | 0.0 | 2.0 | 0.00 | 0.00 | 0.00 | 76 | 1013.8 |
| 20260906043003 | 60 | 0 | 0.0 | 0.0 | 0.00 | 0.00 | 0.00 | 77 | 1013.8 |
| 20260906042403 | 60 | 0 | 0.0 | 0.0 | 0.00 | 0.00 | 0.00 | 77 | 1013.6 |
| 20260906041804 | 60 | 0 | 0.0 | 0.0 | 0.00 | 0.00 | 0.00 | 76 | 1013.6 |
| 20260906041204 | 60 | 0 | 0.0 | 0.0 | 0.00 | 0.00 | 0.00 | 75 | 1013.6 |
| 20260906040604 | 61 | 0 | 0.0 | 0.0 | 0.00 | 0.00 | 0.00 | 75 | 1013.6 |
| 20260906040004 | 61 | 0 | 0.0 | 0.0 | 0.00 | 0.00 | 0.00 | 75 | 1013.5 |
| 20260906035404 | 61 | 0 | 0.0 | 0.0 | 0.00 | 0.00 | 0.00 | 75 | 1013.5 |
| 20260906034804 | 62 | 0 | 0.0 | 0.0 | 0.00 | 0.00 | 0.00 | 75 | 1013.5 |
| 20260906034204 | 62 | 0 | 0.0 | 0.0 | 0.00 | 0.00 | 0.00 | 77 | 1013.4 |
| 20260906033603 | 62 | 0 | 0.0 | 0.0 | 0.00 | 0.00 | 0.00 | 77 | 1013.3 |
| 20260906033003 | 62 | 0 | 0.0 | 0.0 | 0.00 | 0.00 | 0.00 | 76 | 1013.1 |
| 20260906032403 | 63 | 0 | 0.0 | 0.0 | 0.00 | 0.00 | 0.00 | 75 | 1013.1 |
| 20260906031803 | 63 | 0 | 0.0 | 0.0 | 0.00 | 0.00 | 0.00 | 75 | 1013.0 |
| 20260906031203 | 64 | 0 | 0.0 | 0.0 | 0.00 | 0.00 | 0.00 | 75 | 1012.9 |
| 20260906030603 | 64 | 0 | 0.0 | 0.0 | 0.00 | 0.00 | 0.00 | 74 | 1012.9 |
| 20260906030003 | 64 | 0 | 0.0 | 0.0 | 0.00 | 0.00 | 0.00 | 72 | 1013.0 |
| 20260906025403 | 64 | 0 | 0.0 | 0.0 | 0.00 | 0.00 | 0.00 | 71 | 1012.9 |
| 20260906024803 | 65 | 0 | 0.0 | 0.0 | 0.00 | 0.00 | 0.00 | 72 | 1012.9 |
| 20260906024203 | 65 | 0 | 0.0 | 0.0 | 0.00 | 0.00 | 0.00 | 72 | 1012.8 |
| 20260906023603 | 65 | 0 | 0.0 | 0.0 | 0.00 | 0.00 | 0.00 | 72 | 1012.9 |
| 20260906023003 | 66 | 270 | 0.0 | 1.0 | 0.00 | 0.00 | 0.00 | 72 | 1012.9 |
| 20260906022403 | 66 | 0 | 0.0 | 0.0 | 0.00 | 0.00 | 0.00 | 73 | 1012.9 |
| 20260906021803 | 67 | 270 | 0.0 | 1.0 | 0.00 | 0.00 | 0.00 | 73 | 1012.9 |
| 20260906021203 | 67 | 270 | 0.0 | 1.0 | 0.00 | 0.00 | 0.00 | 73 | 1012.9 |
| 20260906020603 | 67 | 270 | 0.0 | 1.0 | 0.00 | 0.00 | 0.00 | 75 | 1012.9 |
| 20260906020004 | 66 | 270 | 0.0 | 2.0 | 0.00 | 0.00 | 0.00 | 77 | 1013.0 |
| 20260906015404 | 65 | 271 | 1.0 | 3.0 | 0.00 | 0.00 | 0.00 | 77 | 1013.0 |
| 20260906014804 | 64 | 272 | 2.0 | 7.0 | 0.00 | 0.00 | 0.00 | 78 | 1013.0 |
| 20260906014204 | 64 | 270 | 3.0 | 8.0 | 0.00 | 0.00 | 0.00 | 78 | 1013.1 |
| 20260906013604 | 64 | 264 | 4.0 | 9.0 | 0.00 | 0.00 | 0.00 | 78 | 1013.0 |
| 20260906013004 | 64 | 268 | 5.0 | 9.0 | 0.00 | 0.00 | 0.00 | 78 | 1013.0 |
| 20260906012403 | 65 | 268 | 4.0 | 8.0 | 0.00 | 0.00 | 0.00 | 78 | 1013.0 |
| 20260906011803 | 65 | 265 | 4.0 | 8.0 | 0.00 | 0.00 | 0.00 | 77 | 1013.0 |
| 20260906011203 | 65 | 268 | 5.0 | 9.0 | 0.00 | 0.00 | 0.00 | 76 | 1013.0 |
| 20260906010603 | 66 | 270 | 5.0 | 10.0 | 0.00 | 0.00 | 0.00 | 75 | 1013.0 |
| 20260906010003 | 66 | 268 | 6.0 | 11.0 | 0.00 | 0.00 | 0.00 | 75 | 1012.9 |
| 20260906005403 | 67 | 266 | 6.0 | 11.0 | 0.00 | 0.00 | 0.00 | 73 | 1012.9 |
| 20260906004803 | 67 | 265 | 7.0 | 11.0 | 0.00 | 0.00 | 0.00 | 73 | 1012.9 |
| 20260906004203 | 68 | 267 | 8.0 | 12.0 | 0.00 | 0.00 | 0.00 | 72 | 1013.0 |
| 20260906003603 | 68 | 266 | 8.0 | 12.0 | 0.00 | 0.00 | 0.00 | 70 | 1013.0 |
| 20260906003003 | 69 | 267 | 7.0 | 11.0 | 0.00 | 0.00 | 0.00 | 68 | 1013.1 |
| 20260906002403 | 70 | 269 | 7.0 | 13.0 | 0.00 | 0.00 | 0.00 | 64 | 1013.1 |
| 20260906001803 | 70 | 268 | 7.0 | 13.0 | 0.00 | 0.00 | 0.00 | 62 | 1013.1 |
| 20260906001203 | 70 | 269 | 8.0 | 13.0 | 0.00 | 0.00 | 0.00 | 61 | 1013.2 |
| 20260906000603 | 72 | 270 | 8.0 | 13.0 | 0.00 | 0.00 | 0.00 | 61 | 1013.1 |
| 20260906000003 | 72 | 269 | 8.0 | 13.0 | 0.00 | 0.00 | 0.00 | 61 | 1013.1 |
| 20260905235403 | 72 | 269 | 9.0 | 13.0 | 0.00 | 0.00 | 0.00 | 63 | 1013.1 |
| 20260905234803 | 72 | 269 | 8.0 | 13.0 | 0.00 | 0.00 | 0.00 | 63 | 1013.0 |
| 20260905234204 | 72 | 268 | 8.0 | 13.0 | 0.00 | 0.00 | 0.00 | 64 | 1013.0 |
| 20260905233604 | 72 | 268 | 8.0 | 13.0 | 0.00 | 0.00 | 0.00 | 64 | 1013.2 |
| 20260905233004 | 72 | 269 | 8.0 | 13.0 | 0.00 | 0.00 | 0.00 | 64 | 1013.2 |
| 20260905232404 | 71 | 269 | 9.0 | 13.0 | 0.00 | 0.00 | 0.00 | 65 | 1013.2 |
| 20260905231804 | 71 | 267 | 9.0 | 13.0 | 0.00 | 0.00 | 0.00 | 64 | 1013.3 |
| 20260905231203 | 71 | 268 | 9.0 | 14.0 | 0.00 | 0.00 | 0.00 | 64 | 1013.3 |
| 20260905230603 | 70 | 266 | 9.0 | 14.0 | 0.00 | 0.00 | 0.00 | 66 | 1013.3 |
| 20260905230004 | 70 | 266 | 10.0 | 14.0 | 0.00 | 0.00 | 0.00 | 66 | 1013.3 |
| 20260905225403 | 71 | 267 | 10.0 | 14.0 | 0.00 | 0.00 | 0.00 | 66 | 1013.5 |
| 20260905224803 | 71 | 267 | 10.0 | 14.0 | 0.00 | 0.00 | 0.00 | 66 | 1013.4 |
| 20260905224203 | 71 | 267 | 9.0 | 14.0 | 0.00 | 0.00 | 0.00 | 67 | 1013.5 |
| 20260905223603 | 71 | 267 | 9.0 | 13.0 | 0.00 | 0.00 | 0.00 | 66 | 1013.5 |
| 20260905223003 | 71 | 265 | 9.0 | 13.0 | 0.00 | 0.00 | 0.00 | 63 | 1013.5 |
| 20260905222403 | 71 | 263 | 9.0 | 12.0 | 0.00 | 0.00 | 0.00 | 65 | 1013.6 |
| 20260905221803 | 71 | 265 | 9.0 | 14.0 | 0.00 | 0.00 | 0.00 | 65 | 1013.6 |
| 20260905221203 | 72 | 266 | 8.0 | 14.0 | 0.00 | 0.00 | 0.00 | 64 | 1013.7 |
| 20260905220003 | 70 | 266 | 9.0 | 13.0 | 0.00 | 0.00 | 0.00 | 65 | 1013.7 |
| 20260905215403 | 70 | 266 | 9.0 | 14.0 | 0.00 | 0.00 | 0.00 | 66 | 1013.7 |
| 20260905214803 | 70 | 270 | 9.0 | 14.0 | 0.00 | 0.00 | 0.00 | 68 | 1013.8 |
| 20260905214203 | 70 | 267 | 10.0 | 15.0 | 0.00 | 0.00 | 0.00 | 69 | 1013.9 |
| 20260905213603 | 70 | 266 | 10.0 | 16.0 | 0.00 | 0.00 | 0.00 | 69 | 1013.9 |
| 20260905213003 | 70 | 267 | 9.0 | 15.0 | 0.00 | 0.00 | 0.00 | 70 | 1013.9 |
| 20260905212404 | 70 | 268 | 9.0 | 14.0 | 0.00 | 0.00 | 0.00 | 71 | 1014.0 |
| 20260905211804 | 70 | 269 | 9.0 | 14.0 | 0.00 | 0.00 | 0.00 | 68 | 1014.0 |
| 20260905211204 | 70 | 265 | 9.0 | 14.0 | 0.00 | 0.00 | 0.00 | 68 | 1014.1 |
| 20260905210604 | 69 | 265 | 9.0 | 13.0 | 0.00 | 0.00 | 0.00 | 69 | 1014.1 |
| 20260905210004 | 70 | 265 | 9.0 | 16.0 | 0.00 | 0.00 | 0.00 | 67 | 1014.1 |
| 20260905204804 | 70 | 267 | 9.0 | 14.0 | 0.00 | 0.00 | 0.00 | 67 | 1014.0 |
| 20260905204203 | 70 | 267 | 7.0 | 12.0 | 0.00 | 0.00 | 0.00 | 68 | 1014.0 |
| 20260905203603 | 70 | 263 | 8.0 | 12.0 | 0.00 | 0.00 | 0.00 | 69 | 1014.0 |
| 20260905203003 | 70 | 267 | 7.0 | 12.0 | 0.00 | 0.00 | 0.00 | 70 | 1014.0 |
| 20260905202403 | 69 | 268 | 7.0 | 12.0 | 0.00 | 0.00 | 0.00 | 71 | 1014.0 |
| 20260905201803 | 70 | 267 | 6.0 | 10.0 | 0.00 | 0.00 | 0.00 | 70 | 1014.1 |
| 20260905201203 | 69 | 268 | 5.0 | 9.0 | 0.00 | 0.00 | 0.00 | 72 | 1014.1 |
| 20260905200603 | 68 | 267 | 5.0 | 10.0 | 0.00 | 0.00 | 0.00 | 73 | 1014.1 |
| 20260905195403 | 68 | 267 | 6.0 | 11.0 | 0.00 | 0.00 | 0.00 | 73 | 1014.3 |
| 20260905194803 | 67 | 267 | 7.0 | 11.0 | 0.00 | 0.00 | 0.00 | 77 | 1014.3 |
| 20260905194203 | 68 | 269 | 7.0 | 11.0 | 0.00 | 0.00 | 0.00 | 76 | 1014.3 |
| 20260905193603 | 68 | 268 | 6.0 | 11.0 | 0.00 | 0.00 | 0.00 | 76 | 1014.4 |
| 20260905193003 | 68 | 268 | 6.0 | 10.0 | 0.00 | 0.00 | 0.00 | 77 | 1014.4 |
| 20260905192403 | 68 | 267 | 5.0 | 10.0 | 0.00 | 0.00 | 0.00 | 77 | 1014.5 |
| 20260905191204 | 68 | 272 | 5.0 | 9.0 | 0.00 | 0.00 | 0.00 | 76 | 1014.5 |
| 20260905190604 | 67 | 272 | 4.0 | 9.0 | 0.00 | 0.00 | 0.00 | 75 | 1014.5 |
| 20260905190004 | 67 | 273 | 4.0 | 9.0 | 0.00 | 0.00 | 0.00 | 75 | 1014.5 |
| 20260905185404 | 67 | 274 | 4.0 | 9.0 | 0.00 | 0.00 | 0.00 | 77 | 1014.5 |
| 20260905184804 | 66 | 274 | 4.0 | 10.0 | 0.00 | 0.00 | 0.00 | 77 | 1014.5 |
| 20260905184204 | 66 | 272 | 4.0 | 10.0 | 0.00 | 0.00 | 0.00 | 78 | 1014.5 |
| 20260905183604 | 66 | 269 | 2.0 | 8.0 | 0.00 | 0.00 | 0.00 | 79 | 1014.5 |
| 20260905183003 | 66 | 274 | 2.0 | 6.0 | 0.00 | 0.00 | 0.00 | 79 | 1014.6 |
| 20260905182403 | 66 | 281 | 2.0 | 6.0 | 0.00 | 0.00 | 0.00 | 79 | 1014.6 |
| 20260905181803 | 66 | 278 | 2.0 | 6.0 | 0.00 | 0.00 | 0.00 | 81 | 1014.6 |
| 20260905181203 | 66 | 278 | 2.0 | 7.0 | 0.00 | 0.00 | 0.00 | 81 | 1014.6 |
| 20260905180603 | 66 | 290 | 1.0 | 4.0 | 0.00 | 0.00 | 0.00 | 81 | 1014.5 |
| 20260905180004 | 66 | 274 | 2.0 | 6.0 | 0.00 | 0.00 | 0.00 | 82 | 1014.5 |
| 20260905175404 | 65 | 275 | 2.0 | 6.0 | 0.00 | 0.00 | 0.00 | 83 | 1014.4 |
| 20260905174803 | 65 | 280 | 1.0 | 6.0 | 0.00 | 0.00 | 0.00 | 82 | 1014.4 |
| 20260905174203 | 65 | 260 | 1.0 | 6.0 | 0.00 | 0.00 | 0.00 | 82 | 1014.4 |
| 20260905173603 | 64 | 239 | 0.0 | 6.0 | 0.00 | 0.00 | 0.00 | 82 | 1014.4 |
| 20260905173003 | 64 | 272 | 1.0 | 6.0 | 0.00 | 0.00 | 0.00 | 85 | 1014.3 |
| 20260905172403 | 63 | 267 | 2.0 | 6.0 | 0.00 | 0.00 | 0.00 | 84 | 1014.3 |
| 20260905171803 | 63 | 277 | 2.0 | 7.0 | 0.00 | 0.00 | 0.00 | 85 | 1014.3 |
| 20260905171203 | 62 | 276 | 3.0 | 7.0 | 0.00 | 0.00 | 0.00 | 86 | 1014.2 |
| 20260905170603 | 62 | 266 | 2.0 | 7.0 | 0.00 | 0.00 | 0.00 | 88 | 1014.3 |
| 20260905170004 | 62 | 270 | 1.0 | 3.0 | 0.00 | 0.00 | 0.00 | 89 | 1014.3 |
| 20260905165404 | 61 | 280 | 1.0 | 4.0 | 0.00 | 0.00 | 0.00 | 88 | 1014.1 |
| 20260905164804 | 61 | 282 | 1.0 | 4.0 | 0.00 | 0.00 | 0.00 | 90 | 1014.1 |
| 20260905164204 | 61 | 292 | 1.0 | 3.0 | 0.00 | 0.00 | 0.00 | 91 | 1014.1 |
| 20260905163604 | 60 | 289 | 1.0 | 6.0 | 0.00 | 0.00 | 0.00 | 92 | 1014.1 |
| 20260905163004 | 60 | 283 | 1.0 | 6.0 | 0.00 | 0.00 | 0.00 | 93 | 1014.1 |
| 20260905162404 | 60 | 276 | 1.0 | 3.0 | 0.00 | 0.00 | 0.00 | 94 | 1014.1 |
| 20260905161804 | 59 | 277 | 0.0 | 3.0 | 0.00 | 0.00 | 0.00 | 94 | 1014.0 |
| 20260905161203 | 59 | 277 | 0.0 | 3.0 | 0.00 | 0.00 | 0.00 | 95 | 1014.0 |
| 20260905160603 | 58 | 277 | 0.0 | 3.0 | 0.00 | 0.00 | 0.00 | 96 | 1014.0 |
| 20260905160004 | 58 | 277 | 1.0 | 3.0 | 0.00 | 0.00 | 0.00 | 96 | 1014.0 |
| 20260905155403 | 58 | 277 | 0.0 | 2.0 | 0.00 | 0.00 | 0.00 | 96 | 1014.1 |
| 20260905154803 | 58 | 277 | 0.0 | 2.0 | 0.00 | 0.00 | 0.00 | 97 | 1014.0 |
| 20260905154203 | 58 | 277 | 0.0 | 2.0 | 0.00 | 0.00 | 0.00 | 97 | 1014.0 |
| 20260905153603 | 57 | 277 | 0.0 | 2.0 | 0.00 | 0.00 | 0.00 | 97 | 1014.0 |
| 20260905153003 | 57 | 277 | 0.0 | 1.0 | 0.00 | 0.00 | 0.00 | 97 | 1014.0 |
| 20260905152403 | 57 | 277 | 0.0 | 2.0 | 0.00 | 0.00 | 0.00 | 97 | 1014.0 |
| 20260905151803 | 56 | 277 | 0.0 | 1.0 | 0.00 | 0.00 | 0.00 | 97 | 1013.9 |
| 20260905151203 | 56 | 277 | 0.0 | 2.0 | 0.00 | 0.00 | 0.00 | 97 | 1013.9 |
| 20260905150603 | 56 | 277 | 0.0 | 2.0 | 0.00 | 0.00 | 0.00 | 96 | 1013.9 |
| 20260905150003 | 56 | 277 | 2.0 | 3.0 | 0.00 | 0.00 | 0.00 | 96 | 1013.9 |
| 20260905145403 | 56 | 277 | 2.0 | 3.0 | 0.00 | 0.00 | 0.00 | 96 | 1013.9 |
| 20260905144803 | 56 | 276 | 2.0 | 4.0 | 0.00 | 0.00 | 0.00 | 96 | 1013.9 |
| 20260905144203 | 56 | 276 | 2.0 | 4.0 | 0.00 | 0.00 | 0.00 | 96 | 1013.8 |
| 20260905143604 | 56 | 276 | 1.0 | 3.0 | 0.00 | 0.00 | 0.00 | 96 | 1013.8 |
| 20260905143004 | 56 | 276 | 1.0 | 3.0 | 0.00 | 0.00 | 0.00 | 96 | 1013.7 |
| 20260905142404 | 56 | 275 | 1.0 | 3.0 | 0.00 | 0.00 | 0.00 | 96 | 1013.7 |
| 20260905141804 | 56 | 275 | 0.0 | 1.0 | 0.00 | 0.00 | 0.00 | 96 | 1013.7 |
| 20260905141204 | 56 | 275 | 0.0 | 1.0 | 0.00 | 0.00 | 0.00 | 96 | 1013.6 |
| 20260905140604 | 56 | 275 | 0.0 | 1.0 | 0.00 | 0.00 | 0.00 | 96 | 1013.5 |
| 20260905140004 | 56 | 275 | 0.0 | 1.0 | 0.00 | 0.00 | 0.00 | 96 | 1013.4 |
| 20260905135404 | 56 | 275 | 0.0 | 1.0 | 0.00 | 0.00 | 0.00 | 96 | 1013.2 |
| 20260905134803 | 56 | 0 | 0.0 | 0.0 | 0.00 | 0.00 | 0.00 | 96 | 1013.2 |
| 20260905134204 | 56 | 0 | 0.0 | 0.0 | 0.00 | 0.00 | 0.00 | 96 | 1013.3 |
| 20260905133603 | 55 | 0 | 0.0 | 0.0 | 0.00 | 0.00 | 0.00 | 96 | 1013.3 |
| 20260905133003 | 55 | 0 | 0.0 | 0.0 | 0.00 | 0.00 | 0.00 | 95 | 1013.2 |
| 20260905131803 | 55 | 0 | 0.0 | 0.0 | 0.00 | 0.00 | 0.00 | 95 | 1013.4 |
| 20260905131203 | 55 | 275 | 0.0 | 1.0 | 0.00 | 0.00 | 0.00 | 95 | 1013.4 |
| 20260905130603 | 55 | 275 | 0.0 | 1.0 | 0.00 | 0.00 | 0.00 | 95 | 1013.4 |
| 20260905130003 | 55 | 275 | 0.0 | 1.0 | 0.00 | 0.00 | 0.00 | 95 | 1013.4 |
| 20260905125403 | 55 | 275 | 0.0 | 1.0 | 0.00 | 0.00 | 0.00 | 95 | 1013.4 |
| 20260905124803 | 55 | 275 | 0.0 | 1.0 | 0.00 | 0.00 | 0.00 | 95 | 1013.3 |
| 20260905124203 | 55 | 275 | 0.0 | 1.0 | 0.00 | 0.00 | 0.00 | 95 | 1013.3 |
| 20260905123603 | 55 | 275 | 0.0 | 1.0 | 0.00 | 0.00 | 0.00 | 95 | 1013.3 |
| 20260905123003 | 55 | 0 | 0.0 | 0.0 | 0.00 | 0.00 | 0.00 | 95 | 1013.3 |
| 20260905122403 | 56 | 0 | 0.0 | 0.0 | 0.00 | 0.00 | 0.00 | 95 | 1013.3 |
| 20260905121803 | 56 | 0 | 0.0 | 0.0 | 0.00 | 0.00 | 0.00 | 95 | 1013.4 |
| 20260905121204 | 56 | 0 | 0.0 | 0.0 | 0.00 | 0.00 | 0.00 | 95 | 1013.4 |
| 20260905120604 | 56 | 0 | 0.0 | 0.0 | 0.00 | 0.00 | 0.00 | 95 | 1013.4 |
| 20260905120004 | 56 | 0 | 0.0 | 0.0 | 0.00 | 0.00 | 0.00 | 95 | 1013.3 |
| 20260905115404 | 56 | 0 | 0.0 | 0.0 | 0.00 | 0.00 | 0.00 | 95 | 1013.3 |
| 20260905114804 | 56 | 0 | 0.0 | 0.0 | 0.00 | 0.00 | 0.00 | 95 | 1013.3 |
| 20260905114203 | 56 | 0 | 0.0 | 0.0 | 0.00 | 0.00 | 0.00 | 95 | 1013.4 |
| 20260905113603 | 56 | 0 | 0.0 | 0.0 | 0.00 | 0.00 | 0.00 | 94 | 1013.4 |
| 20260905113004 | 56 | 0 | 0.0 | 0.0 | 0.00 | 0.00 | 0.00 | 94 | 1013.4 |
| 20260905112403 | 56 | 0 | 0.0 | 0.0 | 0.00 | 0.00 | 0.00 | 94 | 1013.4 |
| 20260905111803 | 56 | 0 | 0.0 | 0.0 | 0.00 | 0.00 | 0.00 | 94 | 1013.4 |
| 20260905111203 | 56 | 0 | 0.0 | 0.0 | 0.00 | 0.00 | 0.00 | 94 | 1013.5 |
| 20260905110603 | 56 | 0 | 0.0 | 0.0 | 0.00 | 0.00 | 0.00 | 94 | 1013.5 |
| 20260905110003 | 56 | 0 | 0.0 | 0.0 | 0.00 | 0.00 | 0.00 | 94 | 1013.5 |
| 20260905105403 | 56 | 0 | 0.0 | 0.0 | 0.00 | 0.00 | 0.00 | 94 | 1013.4 |
| 20260905104803 | 56 | 0 | 0.0 | 0.0 | 0.00 | 0.00 | 0.00 | 93 | 1013.4 |
| 20260905104203 | 56 | 0 | 0.0 | 0.0 | 0.00 | 0.00 | 0.00 | 93 | 1013.5 |
| 20260905103603 | 56 | 0 | 0.0 | 0.0 | 0.00 | 0.00 | 0.00 | 93 | 1013.5 |
| 20260905103003 | 56 | 0 | 0.0 | 0.0 | 0.00 | 0.00 | 0.00 | 93 | 1013.4 |
| 20260905102403 | 56 | 0 | 0.0 | 0.0 | 0.00 | 0.00 | 0.00 | 93 | 1013.5 |
| 20260905101803 | 56 | 0 | 0.0 | 0.0 | 0.00 | 0.00 | 0.00 | 93 | 1013.6 |
| 20260905101203 | 56 | 0 | 0.0 | 0.0 | 0.00 | 0.00 | 0.00 | 92 | 1013.5 |
| 20260905100603 | 56 | 0 | 0.0 | 0.0 | 0.00 | 0.00 | 0.00 | 92 | 1013.5 |
| 20260905100003 | 56 | 0 | 0.0 | 0.0 | 0.00 | 0.00 | 0.00 | 92 | 1013.5 |
| 20260905095403 | 56 | 0 | 0.0 | 0.0 | 0.00 | 0.01 | 0.00 | 92 | 1013.5 |
| 20260905094804 | 56 | 0 | 0.0 | 0.0 | 0.00 | 0.01 | 0.00 | 91 | 1013.6 |
| 20260905094204 | 56 | 0 | 0.0 | 0.0 | 0.00 | 0.01 | 0.00 | 91 | 1013.6 |
| 20260905093604 | 56 | 0 | 0.0 | 0.0 | 0.00 | 0.01 | 0.00 | 91 | 1013.6 |
| 20260905093004 | 57 | 0 | 0.0 | 0.0 | 0.00 | 0.01 | 0.00 | 90 | 1013.6 |
| 20260905092403 | 57 | 0 | 0.0 | 0.0 | 0.00 | 0.01 | 0.00 | 90 | 1013.6 |
| 20260905091804 | 57 | 0 | 0.0 | 0.0 | 0.00 | 0.01 | 0.00 | 89 | 1013.7 |
| 20260905091204 | 57 | 0 | 0.0 | 0.0 | 0.00 | 0.01 | 0.00 | 88 | 1013.7 |
| 20260905090603 | 56 | 0 | 0.0 | 0.0 | 0.00 | 0.01 | 0.00 | 87 | 1013.8 |
| 20260905090004 | 56 | 0 | 0.0 | 0.0 | 0.00 | 0.01 | 0.00 | 87 | 1013.8 |
| 20260905085403 | 56 | 0 | 0.0 | 0.0 | 0.00 | 0.01 | 0.00 | 87 | 1013.9 |
| 20260905084803 | 56 | 0 | 0.0 | 0.0 | 0.00 | 0.01 | 0.00 | 87 | 1013.8 |
| 20260905084203 | 56 | 0 | 0.0 | 0.0 | 0.00 | 0.01 | 0.00 | 88 | 1013.9 |
| 20260905083604 | 57 | 0 | 0.0 | 0.0 | 0.00 | 0.01 | 0.00 | 89 | 1013.9 |
| 20260905083003 | 57 | 0 | 0.0 | 0.0 | 0.00 | 0.01 | 0.00 | 89 | 1013.9 |
| 20260905082403 | 57 | 0 | 0.0 | 0.0 | 0.00 | 0.01 | 0.00 | 90 | 1013.9 |
| 20260905081804 | 57 | 0 | 0.0 | 0.0 | 0.00 | 0.01 | 0.00 | 90 | 1013.8 |
| 20260905081203 | 57 | 0 | 0.0 | 0.0 | 0.00 | 0.01 | 0.00 | 89 | 1013.8 |
| 20260905080603 | 57 | 0 | 0.0 | 0.0 | 0.00 | 0.01 | 0.00 | 89 | 1013.8 |
| 20260905080003 | 57 | 0 | 0.0 | 0.0 | 0.00 | 0.01 | 0.00 | 89 | 1013.8 |
| 20260905075403 | 58 | 0 | 0.0 | 0.0 | 0.00 | 0.01 | 0.00 | 89 | 1013.8 |
| 20260905074803 | 58 | 0 | 0.0 | 0.0 | 0.00 | 0.01 | 0.00 | 88 | 1013.7 |
| 20260905074203 | 58 | 0 | 0.0 | 0.0 | 0.00 | 0.01 | 0.00 | 87 | 1013.6 |
| 20260905073603 | 57 | 0 | 0.0 | 0.0 | 0.00 | 0.01 | 0.00 | 87 | 1013.6 |
| 20260905073003 | 57 | 0 | 0.0 | 0.0 | 0.00 | 0.01 | 0.00 | 87 | 1013.6 |
| 20260905072403 | 57 | 276 | 0.0 | 1.0 | 0.00 | 0.01 | 0.00 | 88 | 1013.6 |
| 20260905071804 | 58 | 276 | 0.0 | 1.0 | 0.00 | 0.01 | 0.00 | 89 | 1013.6 |
| 20260905071204 | 58 | 0 | 0.0 | 0.0 | 0.00 | 0.01 | 0.00 | 89 | 1013.6 |
| 20260905070604 | 58 | 0 | 0.0 | 0.0 | 0.00 | 0.01 | 0.00 | 89 | 1013.6 |
| 20260905070004 | 58 | 0 | 0.0 | 0.0 | 0.00 | 0.01 | 0.00 | 88 | 1013.6 |
| 20260905065404 | 58 | 0 | 0.0 | 0.0 | 0.00 | 0.01 | 0.01 | 88 | 1013.5 |
| 20260905064803 | 58 | 0 | 0.0 | 0.0 | 0.00 | 0.01 | 0.01 | 87 | 1013.6 |
| 20260905064203 | 58 | 0 | 0.0 | 0.0 | 0.00 | 0.01 | 0.01 | 87 | 1013.6 |
| 20260905063604 | 58 | 276 | 0.0 | 1.0 | 0.00 | 0.01 | 0.01 | 87 | 1013.6 |
| 20260905063003 | 58 | 281 | 0.0 | 2.0 | 0.00 | 0.01 | 0.01 | 86 | 1013.5 |
| 20260905062403 | 58 | 284 | 0.0 | 1.0 | 0.00 | 0.01 | 0.01 | 85 | 1013.5 |
| 20260905061803 | 58 | 284 | 0.0 | 2.0 | 0.00 | 0.01 | 0.01 | 85 | 1013.5 |
| 20260905060603 | 58 | 281 | 0.0 | 1.0 | 0.00 | 0.01 | 0.01 | 84 | 1013.6 |
| 20260905060004 | 58 | 281 | 0.0 | 1.0 | 0.00 | 0.01 | 0.01 | 84 | 1013.6 |
| 20260905055403 | 58 | 281 | 0.0 | 1.0 | 0.00 | 0.01 | 0.01 | 84 | 1013.7 |
| 20260905054803 | 58 | 0 | 0.0 | 1.0 | 0.00 | 0.01 | 0.01 | 83 | 1013.6 |
| 20260905054203 | 58 | 0 | 0.0 | 1.0 | 0.00 | 0.01 | 0.01 | 83 | 1013.7 |
| 20260905053603 | 59 | 0 | 0.0 | 0.0 | 0.00 | 0.01 | 0.01 | 83 | 1013.8 |
| 20260905053003 | 59 | 0 | 0.0 | 0.0 | 0.00 | 0.01 | 0.01 | 82 | 1013.8 |
| 20260905052403 | 59 | 281 | 0.0 | 1.0 | 0.00 | 0.01 | 0.01 | 82 | 1013.8 |
| 20260905051803 | 59 | 0 | 0.0 | 0.0 | 0.00 | 0.01 | 0.01 | 81 | 1013.9 |
| 20260905051203 | 59 | 0 | 0.0 | 0.0 | 0.00 | 0.01 | 0.01 | 80 | 1013.9 |
| 20260905050603 | 59 | 0 | 0.0 | 0.0 | 0.00 | 0.01 | 0.01 | 79 | 1013.9 |